Home > Weather > Schweinfurt > Past weeks

Flag for Germany Past Weather in Schweinfurt, Bavaria, Germany — Yesterday and Last 2 Weeks

Now
59 °F

Strong thunderstorms. Fog.


Feels Like: 57 °F
Forecast: 59 / 63 °F
Wind: 9 mph from South

Location: Illesheim

Current Time: May 29, 2016 at 9:22:42 PM

Latest Report: May 29, 2016 at 9:02 PM


Visibility: 2 mi

Pressure: 29.62 "Hg

Humidity: 88%

Dew Point: 55 °F

Location of SchweinfurtLocation

Past Weather in Schweinfurt — Graph

°F

Schweinfurt Temperature Yesterday

Maximum temperature yesterday: 70 °F (at 12:58 PM)
Minimum temperature yesterday: 51 °F (at 4:58 AM)
Average temperature yesterday: 61 °F

High & Low Weather Summary for the Past Weeks

 TemperatureHumidityPressure
High82 °F (May 22, 2:58 PM)100% (May 24, 3:58 AM)30.16 "Hg (May 24, 3:58 AM)
Low38 °F (May 18, 12:58 AM)32% (May 22, 1:58 PM)29.60 "Hg (May 29, 6:58 PM)
Average57 °F78%29.96 "Hg
* Reported May 16 9:56 AM — May 29 8:00 PM, Schweinfurt, Weather by CustomWeather, © 2016

Note: Actual official high and low records may vary slightly from our data, if they occured in-between our weather recording intervals... More about our weather records

Advertising

Schweinfurt Weather History for the Previous 24 Hours

Scroll right to see more
 ConditionsComfort  
Time TempWeatherWind HumidityBarometerVisibility
8:00 PM
Sun, May 29
59 °FThunderstorms. Mostly cloudy.2 mph94%29.62 "HgN/A
7:59 PM59 °FThunderstorms. Fog.2 mph94%29.62 "Hg2 mi
7:03 PM66 °FStrong thunderstorms. Fog.3 mph88%29.62 "Hg2 mi
6:58 PM66 °FStrong thunderstorms. Fog.5 mph94%29.60 "Hg2 mi
6:04 PM72 °FLight rain. Broken clouds.6 mph69%29.63 "HgN/A
5:58 PM71 °FBroken clouds.6 mph68%29.61 "HgN/A
4:58 PM75 °FBroken clouds.6 mph61%29.63 "HgN/A
3:58 PM75 °FScattered clouds.7 mph61%29.65 "HgN/A
2:58 PM75 °FScattered clouds.2 mph61%29.68 "HgN/A
1:58 PM74 °FScattered clouds.3 mph70%29.69 "HgN/A
12:58 PM73 °FSunny.2 mph65%29.69 "HgN/A
11:58 AM70 °FSunny.3 mph78%29.72 "HgN/A
10:58 AM66 °FPartly sunny.No wind83%29.72 "HgN/A
9:58 AM63 °FBroken clouds.2 mph94%29.72 "HgN/A
8:58 AM62 °FPartly sunny.7 mph94%29.72 "HgN/A
7:58 AM60 °FScattered clouds.5 mph99%29.74 "HgN/A
6:58 AM57 °FFog.No wind100%29.75 "Hg5 mi
6:04 AM55 °FFog.5 mph100%29.78 "Hg1 mi
5:58 AM55 °FFog.3 mph100%29.76 "Hg1 mi
4:59 AM54 °FFog.3 mph100%29.78 "Hg2 mi
4:04 AM52 °FFog.2 mph100%29.78 "Hg2 mi
3:58 AM51 °FFog.2 mph100%29.77 "Hg1 mi
2:58 AM53 °FClear.1 mph100%29.78 "HgN/A
1:58 AM54 °FFog.No wind100%29.80 "Hg6 mi
12:58 AM57 °FPassing clouds.2 mph94%29.81 "HgN/A
12:03 AM57 °FPassing clouds.1 mph94%29.83 "HgN/A
11:58 PM
Sat, May 28
57 °FClear.1 mph94%29.81 "HgN/A
10:58 PM63 °FMostly cloudy.13 mph89%29.83 "HgN/A
9:58 PM63 °FMore clouds than sun.No wind100%29.82 "HgN/A
Weather by CustomWeather, © 2016

See weather overviewHow to use our weather pages